User: anonymous   Login
Location: Unspecified
(0.0000°N, 0.0000°E)
Time: 07:47:14
(UTC+00:00)
Language:

Hubble Space Telescope - Orbit

View from above orbital plane
View from above orbital plane
View from above satellite
View from above satellite

Ground track
Ground track

The orbit data is extracted from the following two-line orbital elements,

1 20580U 90037B   15247.55525698  .00001135  00000-0  61251-4 0  9997
2 20580  28.4711 350.6604 0002977  14.0532 101.4000 15.07662753191801
Epoch (UTC): 04 September 2015 13:19:34
Eccentricity: 0.0002977
inclination: 28.4711°
perigee height: 541 km
apogee height: 545 km
right ascension of ascending node: 350.6604°
argument of perigee: 14.0532°
revolutions per day: 15.07662753
mean anomaly at epoch: 101.4000°
orbit number at epoch: 19180

The dashed part of the orbit path shows where the satellite is in the earth's shadow,  

DLR